Weather in Luxembourg

Luxembourg     49°36′39″N   6°07′26″E
temp.,
°C
wind,
m/s
gust,
m/s
humid.,
%
clouds,
%
prec.,
mm/h
press.,
hPa
HPBL,
m
10 august, wed
wed1023:00+19nne49440 0.0 1024150
02:00+17nne49582 0.0 1024168
05:00+16nne46630 0.0 102490
08:00+18ne37525 0.0 1024190
11:00+26e46325 0.0 10231284
14:00+30e6724100 0.0 10222351
17:00+30e66225 0.0 10202420
20:00+27e58230 0.0 1020715
11 august, thu
thu1123:00+19e35390 0.0 102159
02:00+17nne34442 0.0 102156
05:00+16ne33500 0.0 102131
08:00+19ne24420 0.0 1021112
11:00+27e57260 0.0 10211668
14:00+30e78195 0.0 10192336
17:00+31e77185 0.0 10182463
20:00+28ene682136 0.0 1017773
12 august, fri
fri1223:00+21ene333541 0.0 101832
02:00+18ne333926 0.0 101935
05:00+17ne224335 0.0 101819
08:00+20ne243723 0.0 1018114
11:00+28e462357 0.0 10171257
14:00+31e661835 0.0 10162379
17:00+31e66195 0.0 10152655
20:00+28e682081 0.0 1015653
13 august, sat
sat1323:00+20ene333352 0.0 101633
02:00+17ene22429 0.0 101720
05:00+15ne344918 0.0 101742
08:00+18ene374312 0.0 1018175
11:00+26e56290 0.0 10171580
14:00+29e56210 0.0 10162193
17:00+30e55195 0.0 10152537
20:00+28e472351 0.0 1015308
14 august, sun
sun1423:00+21ene2237100 0.0 101626
02:00+18ne114475 0.0 101611
05:00+17ne2246100 0.0 101520
08:00+20ne223983 0.0 101581
11:00+28e462372 0.0 10141151
14:00+32ese551769 0.0 10122791
17:00+33ese5414100 0.0 10103219
20:00+29e4820100 0.0 1008249